彩虹 16星 (RADUGA 16)

导读 | 豆包AI

RADUGA 16(彩虹16号)是由独联体(CIS)继承自苏联航天计划的一颗静止轨道通信卫星,于1985年8月8日发射入轨,隶属于俄罗斯Raduga(彩虹)通信卫星星座。 作为传统区域通信卫星,该卫星主要为俄罗斯及周边高纬度地区提供语音通信、数据传输和电视广播服务,服务覆盖军事、航空、海洋运输等领域,在应急通信等场景中发挥支撑作用,是苏联/俄罗斯早期天基通信网络建设的重要组成部分。

基本信息
目录编号:
15946
目录名称:
RADUGA 16
国际标识:
1985-070A
轨道中心:
EARTH
卫星名称:
彩虹 16星
卫星全名:
彩虹 16星 (RADUGA 16)
卫星状态:
在轨 (已飞行14828 天)
发射日期:
1985-08-08 UTC
国别 :
俄罗斯(独联体) (CIS)
星等 :
--
轨道信息
数据来源 国际轨道数据 AOE轨道数据
星历时间 2026-03-13T16:33:39+0800
16小时前
查看轨道信息
2026-03-12T21:00:00+0800
1天前
查看轨道信息
半长轴 42167.896km 42167.84km
偏心率 0.0002883 0.000274
轨道倾角 9.581° 9.583°
近地点辐角 322.358° 323.089°
升交点赤经 317.424° 317.426°
平近点角 207.982° 273.073°
近地点 35777.601km 35778.149km
远地点 35801.917km 35801.257km
周期 1436.259分钟 1436.256分钟
每日圈数 1.002605 1.002607
详细信息
平衡模式:
三轴稳定
覆盖范围:
全球
运营商:
俄罗斯国家航天集团
运营商所在国:
俄罗斯
制造商(研发单位):
普里克拉德诺伊·梅哈尼基设计局
制造商所在国:
俄罗斯联邦
使用方式:
暂无
卫星简介
彩虹卫星(Raduga, Gran)是苏联用于军事和通信目的的一系列地球静止通信卫星。彩虹卫星旨在支持军事通信、Orbita地面电视网络,并在整个东半球(极地地区除外)提供电话和电报通信。该卫星已退役。
2D轨道图
3D轨道图
轨道高度分析图
轨道倾角分析图
轨道综合分析图
查看轨道综合分析图